Notices

What's New in latest Release from April 7th, 2021:

- Updated Glossary, including Speed of Maximum Gust, and Total Hourly Precipitation

- Updated national and regional climate services offices contacts and prices information

- Addition of station inventory lists for 1981-2010, 1971-2000, and 1961-1990 Normals.

If you haven't already, please take our survey and provide feedback about our website: https://eccc.sondage-survey.ca/f/LanguageSelection.aspx?s=442ca660-fcf1-47c0-95a9-59707d6fd709

Hourly Data Report for August 13, 2015

IQALUIT CLIMATE
NUNAVUT

63°44'50.000" N
68°32'40.000" W
33.50 m
2402592
71321
XFB

Download Data

Hourly Data (August 2015)
Hourly Data Report for August 13, 2015
TIME
LST
Temp Definition
°C
Dew Point Definition
°C
Rel Hum Definition
%
Precip. Amount Definition
mm

Wind Dir Definition
10's deg

Wind Spd Definition
km/h
Visibility Definition
km
Stn Press Definition
kPa
Hmdx Definition


Wind Chill Definition


Weather Definition


00:00 8.5 1.8 63 0.0 14 15   100.71     LegendNANA
01:00 9.3 0.8 55 0.0 14 25   100.69     LegendNANA
02:00 6.9 1.1 67 0.0 15 15   100.64     LegendNANA
03:00 6.2 0.8 68 0.0 15 17   100.61     LegendNANA
04:00 5.9 0.2 67 0.0 15 18   100.59     LegendNANA
05:00 6.9 -0.5 59 0.0 15 27   100.59     LegendNANA
06:00 7.4 -0.2 58 0.0 15 21   100.55     LegendNANA
07:00 6.4 -0.4 62 0.0 15 18   100.52     LegendNANA
08:00 6.5 -0.2 62 0.0 14 20   100.48     LegendNANA
09:00 6.3 -0.6 62 0.0 15 17   100.44     LegendNANA
10:00 5.7 -0.5 64 0.0 15 22   100.39     LegendNANA
11:00 6.2 0.1 65 0.0 16 21   100.34     LegendNANA
12:00 6.1 0.1 65 0.0 16 21   100.31     LegendNANA
13:00 6.4 1.5 71 0.0 14 15   100.27     LegendNANA
14:00 8.3 2.3 66 0.0 16 17   100.21     LegendNANA
15:00 8.7 1.9 62 0.0 16 20   100.18     LegendNANA
16:00 9.0 2.3 63 0.0 16 17   100.13     LegendNANA
17:00 8.2 2.1 66 0.0 15 13   100.13     LegendNANA
18:00 9.7 3.4 65 0.0 16 9   100.09     LegendNANA
19:00 6.7 2.0 72 0.0 23 9   100.09     LegendNANA
20:00 7.8 4.1 77 0.0 19 8   100.07     LegendNANA
21:00 8.2 5.2 82 0.0 18 8   100.05     LegendNANA
22:00 8.3 6.0 86 0.0 15 15   99.99     LegendNANA
23:00 7.6 5.8 89 0.0 17 12   99.98     LegendNANA

Notes on Data Quality.

Legend

  • E = Estimated
  • M = Missing
  • NA = Not Available*
  • [empty] = Indicates an unobserved value
Date modified: